Location: Malvern Link
(52.1333°N, 2.3000°W)
Time: 05:01:31
(UTC+00:00)

Oscar 19 - Visible Passes

Search period start: 26 June 2022 00:00
Search period end: 06 July 2022 00:00
Orbit: 772 x 790 km, 98.8° (Epoch: 25 June)

Date Brightness Start Highest point End Pass type
(mag) Time Alt. Az. Time Alt. Az. Time Alt. Az.
27 Jun 12.9 02:35:07 10° NE 02:38:47 19° E 02:42:27 10° SE visible
28 Jun 13.4 02:05:18 10° ENE 02:06:16 10° E 02:07:14 10° E visible
30 Jun 12.9 02:38:15 10° NE 02:42:03 21° E 02:45:50 10° SE visible
01 Jul 13.3 02:08:03 10° ENE 02:09:32 11° E 02:11:01 10° E visible
03 Jul 12.8 02:41:23 10° NE 02:45:18 22° E 02:49:12 10° SE visible
04 Jul 13.3 02:10:56 10° ENE 02:12:48 12° E 02:14:41 10° ESE visible
